• In Germany
  • List of Countries
  • For 7 days
  • Water Temperature
  • Satellite Maps
  • Weather Map
  • Weather Widgets
  • user-avatar
    Login

    Hourly Weather Belmopan

    Today, 17 January, Wednesday

    Time Temperature Precipitation Wind Pressure Humidity
    00:00 +21°C° 0 mm 1 mps 759 mmHg 85%
    01:00 +20°C° 0 mm 1 mps 759 mmHg 85%
    02:00 +20°C° 0 mm 1 mps 759 mmHg 85%
    03:00 +19°C° 0 mm 1 mps 759 mmHg 85%
    04:00 +19°C° 0 mm 1 mps 759 mmHg 85%
    05:00 +18°C° 0 mm 1 mps 759 mmHg 85%
    06:00 +18°C° 0 mm 1 mps 760 mmHg 84%
    07:00 +19°C° 0 mm 1 mps 760 mmHg 81%
    08:00 +19°C° 0 mm 2 mps 761 mmHg 78%
    09:00 +20°C° 0 mm 2 mps 761 mmHg 74%
    10:00 +23°C° 0 mm 2 mps 761 mmHg 67%
    11:00 +25°C° 0 mm 2 mps 761 mmHg 59%
    12:00 +27°C° 0 mm 2 mps 761 mmHg 52%
    13:00 +27°C° 0 mm 2 mps 760 mmHg 50%
    14:00 +27°C° 0 mm 2 mps 759 mmHg 49%
    15:00 +28°C° 0 mm 2 mps 759 mmHg 48%
    16:00 +26°C° 0 mm 2 mps 759 mmHg 55%
    17:00 +25°C° 0 mm 1 mps 759 mmHg 62%
    18:00 +23°C° 0 mm 1 mps 759 mmHg 70%
    19:00 +22°C° 0.1 mm 1 mps 759 mmHg 77%
    20:00 +22°C° 0.1 mm 1 mps 760 mmHg 84%
    21:00 +21°C° 0.1 mm 1 mps 760 mmHg 91%
    22:00 +21°C° 0.1 mm 1 mps 760 mmHg 92%
    23:00 +19°C° 0.1 mm 2 mps 760 mmHg 93%

    Tomorrow, 18 January, Thursday

    Time Temperature Precipitation Wind Pressure Humidity
    00:00 +19°C° 0.1 mm 2 mps 760 mmHg 95%
    01:00 +19°C° 0.3 mm 2 mps 760 mmHg 96%
    02:00 +19°C° 0.3 mm 2 mps 759 mmHg 97%
    03:00 +18°C° 0.3 mm 2 mps 759 mmHg 98%
    04:00 +18°C° 0.2 mm 2 mps 759 mmHg 98%
    05:00 +18°C° 0.2 mm 2 mps 759 mmHg 98%
    06:00 +18°C° 0.2 mm 2 mps 759 mmHg 98%
    07:00 +18°C° 0.2 mm 2 mps 759 mmHg 98%
    08:00 +18°C° 0.2 mm 2 mps 760 mmHg 98%
    09:00 +20°C° 0.2 mm 1 mps 761 mmHg 98%
    10:00 +20°C° 0.4 mm 1 mps 760 mmHg 97%
    11:00 +20°C° 0.4 mm 1 mps 760 mmHg 97%
    12:00 +20°C° 0.4 mm 1 mps 760 mmHg 96%
    13:00 +21°C° 1 mm 1 mps 759 mmHg 96%
    14:00 +21°C° 1 mm 1 mps 758 mmHg 96%
    15:00 +21°C° 1 mm 1 mps 757 mmHg 96%
    16:00 +21°C° 1.7 mm 1 mps 758 mmHg 97%
    17:00 +21°C° 1.7 mm 1 mps 758 mmHg 98%
    18:00 +21°C° 1.7 mm 1 mps 758 mmHg 99%
    19:00 +21°C° 1.3 mm 1 mps 758 mmHg 99%
    20:00 +21°C° 1.3 mm 1 mps 759 mmHg 99%
    21:00 +21°C° 1.3 mm 1 mps 759 mmHg 99%
    22:00 +21°C° 1.1 mm 1 mps 759 mmHg 99%
    23:00 +21°C° 1.1 mm 1 mps 759 mmHg 99%

    Day after tomorrow, 19 January, Friday

    Time Temperature Precipitation Wind Pressure Humidity
    00:00 +21°C° 1.1 mm 1 mps 759 mmHg 99%
    01:00 +21°C° 0.7 mm 1 mps 758 mmHg 99%
    02:00 +20°C° 0.7 mm 1 mps 758 mmHg 99%
    03:00 +20°C° 0.7 mm 1 mps 757 mmHg 99%
    04:00 +20°C° 0.1 mm 1 mps 757 mmHg 99%
    05:00 +20°C° 0.1 mm 1 mps 758 mmHg 99%
    06:00 +19°C° 0.1 mm 1 mps 758 mmHg 99%
    07:00 +20°C° 0 mm 1 mps 758 mmHg 97%
    08:00 +20°C° 0 mm 1 mps 759 mmHg 96%
    09:00 +20°C° 0 mm 1 mps 759 mmHg 95%
    10:00 +21°C° 0 mm 1 mps 759 mmHg 89%
    11:00 +23°C° 0 mm 1 mps 759 mmHg 83%
    12:00 +24°C° 0 mm 1 mps 758 mmHg 78%
    13:00 +25°C° 0 mm 1 mps 757 mmHg 75%
    14:00 +25°C° 0 mm 1 mps 757 mmHg 72%
    15:00 +26°C° 0 mm 1 mps 756 mmHg 70%
    16:00 +24°C° 0 mm 1 mps 756 mmHg 75%
    17:00 +23°C° 0 mm 1 mps 756 mmHg 80%
    18:00 +22°C° 0 mm 1 mps 756 mmHg 85%
    19:00 +21°C° 0 mm 1 mps 757 mmHg 88%
    20:00 +21°C° 0 mm 1 mps 757 mmHg 91%
    21:00 +20°C° 0 mm 1 mps 757 mmHg 94%
    22:00 +20°C° 0 mm 1 mps 757 mmHg 95%
    23:00 +19°C° 0 mm 1 mps 757 mmHg 96%

    20 January, Saturday

    Time Temperature Precipitation Wind Pressure Humidity
    00:00 +19°C° 0 mm 1 mps 757 mmHg 97%
    01:00 +19°C° 0 mm 1 mps 756 mmHg 97%
    02:00 +19°C° 0 mm 1 mps 756 mmHg 97%
    03:00 +19°C° 0 mm 1 mps 755 mmHg 97%
    04:00 +18°C° 0 mm 1 mps 755 mmHg 98%
    05:00 +18°C° 0 mm 1 mps 755 mmHg 98%
    06:00 +18°C° 0 mm 1 mps 756 mmHg 98%
    07:00 +20°C° 0 mm 1 mps 756 mmHg 92%
    08:00 +21°C° 0 mm 1 mps 757 mmHg 86%
    09:00 +23°C° 0 mm 1 mps 757 mmHg 80%
    10:00 +25°C° 0 mm 1 mps 757 mmHg 73%
    11:00 +26°C° 0 mm 1 mps 756 mmHg 67%
    12:00 +28°C° 0 mm 2 mps 756 mmHg 60%
    13:00 +28°C° 0 mm 2 mps 755 mmHg 60%
    14:00 +28°C° 0 mm 2 mps 754 mmHg 61%
    15:00 +28°C° 0 mm 2 mps 753 mmHg 62%
    16:00 +26°C° 0 mm 2 mps 754 mmHg 69%
    17:00 +25°C° 0 mm 1 mps 754 mmHg 75%
    18:00 +23°C° 0 mm 1 mps 754 mmHg 82%
    19:00 +23°C° 0 mm 1 mps 755 mmHg 87%
    20:00 +22°C° 0 mm 1 mps 755 mmHg 91%
    21:00 +19°C° 0 mm 0 mps 755 mmHg 95%
    22:00 +19°C° 0 mm 0 mps 755 mmHg 96%
    23:00 +19°C° 0 mm 0 mps 755 mmHg 97%

    21 January, Sunday

    Time Temperature Precipitation Wind Pressure Humidity
    00:00 +19°C° 0 mm 0 mps 754 mmHg 98%
    01:00 +19°C° 0.1 mm 0 mps 754 mmHg 98%
    02:00 +19°C° 0.1 mm 0 mps 754 mmHg 98%
    03:00 +20°C° 0.1 mm 0 mps 753 mmHg 98%
    04:00 +20°C° 0 mm 0 mps 753 mmHg 98%
    05:00 +20°C° 0 mm 0 mps 753 mmHg 98%
    06:00 +20°C° 0 mm 0 mps 753 mmHg 98%
    07:00 +21°C° 0 mm 0 mps 754 mmHg 96%
    08:00 +21°C° 0 mm 0 mps 754 mmHg 94%
    09:00 +22°C° 0 mm 0 mps 754 mmHg 92%
    10:00 +26°C° 0.1 mm 1 mps 754 mmHg 85%
    11:00 +28°C° 0.1 mm 1 mps 753 mmHg 77%
    12:00 +29°C° 0.1 mm 1 mps 753 mmHg 70%
    13:00 +30°C° 0.1 mm 1 mps 752 mmHg 67%
    14:00 +30°C° 0.1 mm 1 mps 751 mmHg 65%
    15:00 +31°C° 0.1 mm 2 mps 751 mmHg 62%
    16:00 +29°C° 0 mm 1 mps 751 mmHg 69%
    17:00 +27°C° 0 mm 1 mps 751 mmHg 76%
    18:00 +26°C° 0 mm 1 mps 751 mmHg 83%
    19:00 +25°C° 0 mm 1 mps 752 mmHg 88%
    20:00 +24°C° 0 mm 1 mps 752 mmHg 93%
    21:00 +23°C° 0 mm 1 mps 753 mmHg 98%
    22:00 +23°C° 0 mm 1 mps 753 mmHg 98%
    23:00 +21°C° 0 mm 0 mps 753 mmHg 98%

    22 January, Monday

    Time Temperature Precipitation Wind Pressure Humidity
    00:00 +21°C° 0 mm 0 mps 753 mmHg 99%
    01:00 +21°C° 0 mm 0 mps 753 mmHg 99%
    02:00 +21°C° 0 mm 0 mps 752 mmHg 99%
    03:00 +21°C° 0 mm 0 mps 752 mmHg 99%
    04:00 +21°C° 0.1 mm 0 mps 753 mmHg 99%
    05:00 +21°C° 0.1 mm 0 mps 753 mmHg 99%
    06:00 +21°C° 0.1 mm 0 mps 753 mmHg 99%
    07:00 +22°C° 0.1 mm 0 mps 754 mmHg 97%
    08:00 +23°C° 0.1 mm 0 mps 754 mmHg 95%
    09:00 +26°C° 0.1 mm 1 mps 755 mmHg 93%
    10:00 +27°C° 0.5 mm 1 mps 754 mmHg 90%
    11:00 +28°C° 0.5 mm 1 mps 754 mmHg 86%
    12:00 +29°C° 0.5 mm 1 mps 753 mmHg 83%
    13:00 +29°C° 1.1 mm 1 mps 753 mmHg 83%
    14:00 +29°C° 1.1 mm 1 mps 752 mmHg 83%
    15:00 +29°C° 1.1 mm 1 mps 751 mmHg 83%
    16:00 +27°C° 1 mm 1 mps 752 mmHg 86%
    17:00 +26°C° 1 mm 1 mps 752 mmHg 90%
    18:00 +25°C° 1 mm 1 mps 752 mmHg 94%
    19:00 +24°C° 0.3 mm 1 mps 753 mmHg 95%
    20:00 +24°C° 0.3 mm 1 mps 753 mmHg 97%
    21:00 +21°C° 0.3 mm 0 mps 754 mmHg 98%
    22:00 +21°C° 0.2 mm 0 mps 753 mmHg 99%
    23:00 +21°C° 0.2 mm 0 mps 753 mmHg 99%
    Show more